Weather History for Chester, SC

Change the Weather History Date:

Monday, July 22, 2013

  Actual Average (KUZA) Record (KUZA)
Temperature  
Mean Temperature 78 °F -  
Max Temperature 86 °F 90 °F 101 °F (1983)
Min Temperature 71 °F 70 °F 57 °F (2001)
Cooling Degree Days 14    
Growing Degree Days 28 (Base 50)    
Moisture  
Dew Point 72 °F    
Average Humidity 85    
Maximum Humidity 100    
Minimum Humidity 62    
Precipitation  
Precipitation 0.16 in - - ()
Sea Level Pressure  
Sea Level Pressure 29.95 in    
Wind  
Wind Speed 3 mph (SSW)    
Max Wind Speed 9 mph    
Max Gust Speed 16 mph    
Visibility 9 miles    
Events Rain    
Averages and records for this station are not official NWS values.
T = Trace of Precipitation, MM = Missing Value Source: NWS Daily Summary

Daily Weather History Graph

Daily Weather History Graph

Search for Another Location

Airport:

Trip Planner

Search our weather history database for the weather conditions in past years. The results will help you decide how hot, cold, wet, or windy it might be!

Date:

Astronomy

Jul. 22, 2013 Rise Set
Actual Time 6:27 AM EDT 8:34 PM EDT
Civil Twilight 5:59 AM EDT 9:02 PM EDT
Nautical Twilight 5:24 AM EDT 9:37 PM EDT
Astronomical Twilight 4:47 AM EDT 10:14 PM EDT
Moon 8:23 PM EDT (7/22) 6:19 AM EDT (7/22)
Length of Visible Light 15h 03m
Length of Day
14h 07m
Full, 100% of the Moon is Illuminated
Jul 22
Full
Jul 22
Full
Jul 29
Last Quarter
Aug 6
New
Aug 14
First Quarter

Hourly Weather History & Observations

Time (EDT) Temp. Heat Index Dew Point Humidity Pressure Visibility Wind Dir Wind Speed Gust Speed Precip Events Conditions
12:15 AM 73.4 °F - 73.4 °F 100% 30.02 in 5.0 mi Calm Calm - 0.05 in Rain Rain
12:35 AM 73.4 °F - 73.4 °F 100% 30.00 in 5.0 mi Calm Calm - 0.09 in Rain Rain
12:55 AM 73.4 °F - 73.4 °F 100% 29.98 in 10.0 mi North 4.6 mph - 0.12 in Rain Light Rain
1:15 AM 71.6 °F - 71.6 °F 100% 29.98 in 7.0 mi North 3.5 mph - 0.03 in Rain Light Rain
1:35 AM 71.6 °F - 71.6 °F 100% 29.98 in 7.0 mi Calm Calm - 0.03 in Rain Light Rain
1:55 AM 71.6 °F - 71.6 °F 100% 29.97 in 10.0 mi NNW 3.5 mph - 0.03 in   Scattered Clouds
2:15 AM 71.6 °F - 71.6 °F 100% 29.97 in 10.0 mi Calm Calm - N/A   Scattered Clouds
2:35 AM 71.6 °F - 71.6 °F 100% 29.97 in 10.0 mi Calm Calm - N/A   Mostly Cloudy
2:55 AM 71.6 °F - 71.6 °F 100% 29.96 in 7.0 mi Calm Calm - N/A   Overcast
3:15 AM 71.6 °F - 71.6 °F 100% 29.96 in 7.0 mi SSW 3.5 mph - N/A   Mostly Cloudy
3:35 AM 71.6 °F - 71.6 °F 100% 29.95 in 7.0 mi Calm Calm - N/A   Mostly Cloudy
3:55 AM 71.6 °F - 71.6 °F 100% 29.95 in 7.0 mi Calm Calm - N/A   Mostly Cloudy
4:15 AM 71.6 °F - 71.6 °F 100% 29.94 in 7.0 mi Calm Calm - N/A   Mostly Cloudy
4:35 AM 71.6 °F - 71.6 °F 100% 29.95 in 7.0 mi Calm Calm - N/A   Overcast
4:55 AM 71.6 °F - 71.6 °F 100% 29.95 in 10.0 mi Calm Calm - N/A   Overcast
5:15 AM 71.6 °F - 71.6 °F 100% 29.95 in 7.0 mi Calm Calm - N/A   Overcast
5:35 AM 71.6 °F - 71.6 °F 100% 29.96 in 7.0 mi Calm Calm - N/A   Overcast
5:55 AM 71.6 °F - 71.6 °F 100% 29.97 in 10.0 mi Calm Calm - N/A   Overcast
6:15 AM 71.6 °F - 71.6 °F 100% 29.98 in 10.0 mi Calm Calm - N/A   Overcast
6:35 AM 71.6 °F - 71.6 °F 100% 29.98 in 7.0 mi Calm Calm - N/A   Overcast
6:55 AM 71.6 °F - 71.6 °F 100% 29.99 in 7.0 mi Calm Calm - N/A   Overcast
7:15 AM 71.6 °F - 71.6 °F 100% 29.99 in 7.0 mi SSW 3.5 mph - N/A   Overcast
7:35 AM 71.6 °F - 71.6 °F 100% 29.99 in 10.0 mi South 3.5 mph - N/A   Overcast
7:55 AM 71.6 °F - 71.6 °F 100% 29.99 in 10.0 mi SSW 3.5 mph - N/A   Overcast
8:15 AM 71.6 °F - 71.6 °F 100% 30.00 in 10.0 mi Calm Calm - N/A   Overcast
8:35 AM 73.4 °F - 71.6 °F 94% 30.00 in 10.0 mi Calm Calm - N/A   Overcast
8:55 AM 71.6 °F - 71.6 °F 100% 30.00 in 10.0 mi South 3.5 mph - N/A   Overcast
9:35 AM 73.4 °F - 71.6 °F 94% 30.01 in 10.0 mi WSW 3.5 mph - N/A   Overcast
10:35 AM 75.2 °F - 73.4 °F 94% 30.01 in 10.0 mi SW 4.6 mph - 0.01 in   Overcast
10:55 AM 77.0 °F - 73.4 °F 89% 30.02 in 10.0 mi SSW 4.6 mph - 0.01 in   Overcast
11:15 AM 77.0 °F - 73.4 °F 89% 30.02 in 10.0 mi SSW 5.8 mph - N/A   Overcast
11:35 AM 77.0 °F - 73.4 °F 89% 30.01 in 10.0 mi SSW 3.5 mph - N/A   Overcast
11:55 AM 78.8 °F - 71.6 °F 78% 30.01 in 10.0 mi SSW 3.5 mph - N/A   Overcast
12:15 PM 78.8 °F - 71.6 °F 78% 30.01 in 10.0 mi SSW 4.6 mph - N/A   Overcast
12:35 PM 80.6 °F 84.6 °F 71.6 °F 74% 30.00 in 10.0 mi South 6.9 mph - N/A   Overcast
12:55 PM 82.4 °F 87.2 °F 71.6 °F 70% 30.00 in 10.0 mi WSW 3.5 mph - N/A   Overcast
1:15 PM 80.6 °F 84.6 °F 71.6 °F 74% 29.99 in 10.0 mi SSW 5.8 mph - N/A   Mostly Cloudy
1:35 PM 82.4 °F 87.2 °F 71.6 °F 70% 29.98 in 10.0 mi SW 4.6 mph - N/A   Mostly Cloudy
1:55 PM 84.2 °F 89.6 °F 71.6 °F 66% 29.97 in 10.0 mi SW 5.8 mph - N/A   Mostly Cloudy
2:15 PM 86.0 °F 91.8 °F 71.6 °F 62% 29.96 in 10.0 mi SSW 4.6 mph - N/A   Mostly Cloudy
2:35 PM 86.0 °F 91.8 °F 71.6 °F 62% 29.95 in 10.0 mi South 5.8 mph - N/A   Scattered Clouds
2:55 PM 86.0 °F 93.4 °F 73.4 °F 66% 29.95 in 10.0 mi South 5.8 mph - N/A   Mostly Cloudy
3:15 PM 86.0 °F 93.4 °F 73.4 °F 66% 29.94 in 10.0 mi South 5.8 mph - N/A   Scattered Clouds
3:35 PM 86.0 °F 93.4 °F 73.4 °F 66% 29.94 in 10.0 mi SSW 6.9 mph - N/A   Mostly Cloudy
3:55 PM 86.0 °F 93.4 °F 73.4 °F 66% 29.92 in 10.0 mi SSW 6.9 mph - N/A   Mostly Cloudy
4:15 PM 86.0 °F 93.4 °F 73.4 °F 66% 29.92 in 10.0 mi South 8.1 mph - N/A   Mostly Cloudy
4:35 PM 86.0 °F 91.8 °F 71.6 °F 62% 29.92 in 10.0 mi South 4.6 mph - N/A   Scattered Clouds
4:55 PM 86.0 °F 91.8 °F 71.6 °F 62% 29.92 in 10.0 mi SSW 5.8 mph - N/A   Scattered Clouds
5:15 PM 84.2 °F 89.6 °F 71.6 °F 66% 29.92 in 10.0 mi SSW 8.1 mph - N/A   Mostly Cloudy
5:35 PM 84.2 °F 90.9 °F 73.4 °F 70% 29.90 in 10.0 mi SSW 5.8 mph - N/A   Scattered Clouds
5:55 PM 86.0 °F 91.8 °F 71.6 °F 62% 29.90 in 10.0 mi SSW 6.9 mph - N/A   Clear
6:15 PM 84.2 °F 89.6 °F 71.6 °F 66% 29.90 in 10.0 mi SSW 9.2 mph - N/A   Clear
6:35 PM 84.2 °F 89.6 °F 71.6 °F 66% 29.90 in 10.0 mi SSW 5.8 mph 16.1 mph N/A   Clear
6:55 PM 82.4 °F 87.2 °F 71.6 °F 70% 29.89 in 10.0 mi SSW 6.9 mph - N/A   Clear
7:15 PM 82.4 °F 87.2 °F 71.6 °F 70% 29.89 in 10.0 mi SSW 5.8 mph - N/A   Clear
7:35 PM 82.4 °F 87.2 °F 71.6 °F 70% 29.89 in 10.0 mi South 8.1 mph - N/A   Clear
7:55 PM 80.6 °F 84.6 °F 71.6 °F 74% 29.90 in 10.0 mi SW 3.5 mph - N/A   Clear
8:15 PM 78.8 °F - 71.6 °F 78% 29.89 in 10.0 mi SSW 3.5 mph - N/A   Clear
8:35 PM 78.8 °F - 71.6 °F 78% 29.89 in 10.0 mi South 4.6 mph - N/A   Clear
8:55 PM 78.8 °F - 71.6 °F 78% 29.89 in 10.0 mi SSW 4.6 mph - N/A   Clear
9:15 PM 78.8 °F - 71.6 °F 78% 29.90 in 10.0 mi SSW 4.6 mph - N/A   Clear
9:35 PM 77.0 °F - 71.6 °F 83% 29.90 in 10.0 mi South 3.5 mph - N/A   Clear
9:55 PM 77.0 °F - 71.6 °F 83% 29.90 in 10.0 mi South 3.5 mph - N/A   Clear
10:15 PM 77.0 °F - 71.6 °F 83% 29.91 in 10.0 mi SSW 4.6 mph - N/A   Clear
10:35 PM 77.0 °F - 71.6 °F 83% 29.91 in 10.0 mi SSW 4.6 mph - N/A   Clear
10:55 PM 77.0 °F - 71.6 °F 83% 29.91 in 10.0 mi SSW 4.6 mph - N/A   Clear
11:15 PM 77.0 °F - 73.4 °F 89% 29.92 in 10.0 mi SSW 4.6 mph - N/A   Clear
11:35 PM 77.0 °F - 73.4 °F 89% 29.91 in 10.0 mi SSW 4.6 mph - N/A   Clear
11:55 PM 77.0 °F - 73.4 °F 89% 29.91 in 10.0 mi SW 3.5 mph - N/A   Clear